Regional Weather Roundup
Issued by NWS

Home | Current Version | Previous Version | Text Only | Print | Product List | Glossary Off
Versions: 1 2 3 4 5 6 7 8 9 10 11 12 13 14 15 16 17 18 19 20 21 22 23 24 25 26 27 28 29 30 31 32 33 34 35 36 37 38 39 40 41 42 43 44 45 46 47 48 49 50

000
ASUS43 KDTX 192201
RWRMI
MICHIGAN HOURLY REGIONAL WEATHER ROUNDUP
NATIONAL WEATHER SERVICE DETROIT/PONTIAC MI
600 PM EDT FRI SEP 19 2014

NOTE: "FAIR" INDICATES FEW OR NO CLOUDS BELOW 12,000 FEET WITH NO
SIGNIFICANT WEATHER AND/OR OBSTRUCTION TO VISIBILITY.

MIZ047>049-052>055-059>063-066>070-074>076-081>083-192300-
SOUTHEAST LOWER MICHIGAN

CITY           SKY/WX    TMP DP  RH WIND       PRES   REMARKS
ADRIAN         SUNNY     68  46  45 S8        30.12F
ALMA           MOSUNNY   66  49  53 S7        30.06F
ANN ARBOR      MOSUNNY   64  50  60 SE9       30.11F
BAD AXE        SUNNY     64  45  50 S13       30.09F
CARO           SUNNY     64  44  48 SE7       30.07F
DETROIT CITY   MOSUNNY   65  46  50 SE8       30.14F
DETROIT        PTSUNNY   63  43  48 SE9       30.14F
FLINT          SUNNY     66  41  40 S8        30.10F
GROSSE ILE     MOSUNNY   63  52  67 S6        30.13F
HILLSDALE      SUNNY     68  45  42 SE6       30.11S
HOWELL         SUNNY     64  46  50 S8        30.10F

CITY           SKY/WX    TMP DP  RH WIND       PRES   REMARKS
JACKSON        SUNNY     66  47  50 SE13      30.10F
LAMBERTVILLE   MOSUNNY   64  50  59 E5        30.13F
LANSING        SUNNY     67  49  52 S9        30.09F
LAPEER         FAIR      62  42  48 SE7       30.12F
MASON          SUNNY     66  48  52 S6        30.09F
MONROE         MOSUNNY   63  52  67 SE7       30.12F
MT. CLEMENS    PTSUNNY   63  53  71 S8        30.13F
PONTIAC        PTSUNNY   64  42  44 S8        30.11F
PORT HOPE        N/A     64  46  52 VRB6      30.07F
PORT HURON     MOSUNNY   63  52  67 S10       30.14F
TRI CITIES     SUNNY     68  48  48 S13       30.07F
TROY           MOSUNNY   67  42  40 SE9       30.14F
SAGINAW HB     SUNNY     64  45  48 S8        30.07F
$$
MIZ043>046-050>051-056>058-064>065-071>073-077>080-192300-
SOUTHWEST LOWER MICHIGAN

CITY           SKY/WX    TMP DP  RH WIND       PRES   REMARKS
BATTLE CREEK   MOSUNNY   69  48  47 S10       30.08F
BENTON HARBOR  SUNNY     69  48  47 SE12G18   30.04F
BIG RAPIDS     PTSUNNY   67  54  63 S14G23    30.02F
COLDWATER      SUNNY     69  49  47 S7        30.10S
FREMONT        FAIR      68  48  47 S9G16     30.02F
HOLLAND        SUNNY     71  53  52 S12G22    30.04F
GRAND RAPIDS   PTSUNNY   70  53  54 S12       30.05F
IONIA          FAIR      70  49  47 S13       30.05F
KALAMAZOO      SUNNY     70  49  47 S13       30.08F
LUDINGTON      MOSUNNY   69  53  55 S20G25    29.99F
MARSHALL       SUNNY     68  48  50 S7        30.08F
MOUNT PLEASANT MOSUNNY   67  50  53 S12       30.04F
MUSKEGON       PTSUNNY   69  53  56 S13       30.03F
SOUTH HAVEN    SUNNY     71  51  48 S9G16     30.04F
$$
MIZ016>042-192300-
NORTHERN LOWER MICHIGAN

CITY           SKY/WX    TMP DP  RH WIND       PRES   REMARKS
ALPENA         PTSUNNY   62  49  62 S15       30.01F
BEAVER ISLAND  PTSUNNY   68  51  55 S15G22    29.90F
BELLAIRE       PTSUNNY   68  51  54 S12G26    29.95F
CADILLAC       PTSUNNY   65  53  64 S20G26    29.99F
CHARLEVOIX     MOSUNNY   68  52  56 S10G21    29.96F
FRANKFORT      MOSUNNY   67  51  54 S15G26    29.95S
GAYLORD        PTSUNNY   62  49  62 S17G28    29.98F
GRAYLING       PTSUNNY   64  50  60 S9G18     30.01F
HARBOR SPRINGS PTSUNNY   67  50  54 S15G21    29.94F
HOUGHTON LAKE  PTSUNNY   63  51  65 S9        30.03F
MANISTEE       MOSUNNY   68  46  45 S16G23    29.98F
OSCODA         MOSUNNY   62  47  58 S7        30.05F
PELLSTON       PTSUNNY   66  50  56 S8G23     29.94F
ROGERS CITY    PTSUNNY   63  52  67 S12G21    30.00F
TRAVERSE CITY  PTSUNNY   68  50  52 S10G20    29.94F
$$
MIZ007>008-015-192300-
EASTERN UPPER MICHIGAN

CITY           SKY/WX    TMP DP  RH WIND       PRES   REMARKS
KINROSS        CLOUDY    64  55  72 SE9       29.91F
MACKINAC ISLAN PTSUNNY   65  51  58 S13G20    29.93S
NEWBERRY       PTSUNNY   63  51  66 S23G35    29.84F
S. S. MARIE    CLOUDY    60  51  72 SE14G21   29.91F
$$
MIZ004>006-011>014-085-192300-
CENTRAL UPPER MICHIGAN

CITY           SKY/WX    TMP DP  RH WIND       PRES   REMARKS
MANISTIQUE     CLOUDY    61  55  81 S15G25    29.88S
ESCANABA       PTSUNNY   61  54  77 S13G23    29.84F
MENOMINEE      PTSUNNY   68  55  64 S15G24    29.83F
SAWYER-GWINN   SUNNY     66  52  59 S25G31    29.78F
$$
MIZ001>003-009>011-084-192300-
WESTERN UPPER MICHIGAN

CITY           SKY/WX    TMP DP  RH WIND       PRES   REMARKS
IRON MOUNTAIN  PTSUNNY   67  51  56 S13G26    29.77F
HOUGHTON       RAIN      62  54  74 SW8       29.68S
COPPER HARBOR    N/A     62  52  69 SW8G18    29.64F
IRONWOOD       CLOUDY    66  55  68 S9        29.68F
$$

ABBREVIATIONS USED IN REMARKS
   TC - TEMPERATURE IN CELSIUS
  WCI - WIND CHILL INDEX
   HX - HEAT INDEX
  VSB - VISIBILITY




USA.gov is the U.S. government's official web portal to all federal, state and local government web resources and services.